chang-sha , China , ASIA

  • Wednesday
    September 20

      Light rain

      70 °F

      Northwest

       

  • Thursday
    September 21

    Overcast  Cloudy

    79 °F  70 °F

    Northwest  Northwest

        

  • Friday
    September 22

    Cloudy  Cloudy

    84 °F  73 °F

    Northwest  North

        

  • Saturday
    September 23

    Cloudy  Sunny

    90 °F  77 °F

    North  North

        

  • Sunday
    September 24

    Sunny  Sunny

    95 °F  79 °F

    South  South

        

  • Monday
    September 25

    Sunny  Cloudy

    95 °F  79 °F

    South  South

        

  • Tuesday
    September 26

    Cloudy  Cloudy

    95 °F  73 °F

    North  North

        

Date   Weather Temperature Humidity Total_rain Visibility Wind
23:00 Light rain 72°F 95.2% 0.9mm 4km Northeast  1.8m/s
02:00 Light rain 71°F 95.8% 1.1mm 4km Northwest  2.0m/s
05:00 Moderate rain 71°F 96.9% 3.5mm 4km Northwest  1.6m/s
08:00 Light rain 70°F 98% 2.8mm 0.4km Northeast  1.4m/s
11:00 Overcast 73°F 92.3% 0mm 12km Northwest  1.6m/s
14:00 Overcast 78°F 82.9% 0mm 4km Northwest  2.0m/s
17:00 Overcast 76°F 89.3% 0mm 8km Northeast  2.1m/s
20:00 Overcast 74°F 77.7% 0mm 4km Northeast  1.5m/s
23:00 Cloudy 75°F 95% 0mm 4km Northeast  1.3m/s
02:00 Cloudy 70°F 98% 0mm 4km Northeast  0.8m/s
05:00 Cloudy 70°F 96.6% 0mm 4km Southeast  0.8m/s
08:00 Cloudy 72°F 96.4% 0mm 4km Northeast  1.7m/s
11:00 Cloudy 84°F 82.7% 0mm 8km Northwest  1.9m/s
14:00 Cloudy 84°F 85.9% 0mm 8km Northwest  2.6m/s
17:00 Cloudy 79°F 93.2% 0mm 12km Northwest  1.6m/s
20:00 Cloudy 76°F 77.4% 0mm 4km Northeast  1.5m/s
23:00 Cloudy 76°F 96.1% 0mm 4km Northeast  1.6m/s
02:00 Cloudy 75°F 96.7% 0mm 4km Northwest  1.5m/s
05:00 Cloudy 74°F 98% 0mm 4km Northeast  1.3m/s
08:00 Cloudy 74°F 97.1% 0mm 4km Northeast  1.4m/s
11:00 Cloudy 86°F 82.5% 0mm 12km Southwest  2.1m/s
14:00 Cloudy 89°F 81.5% 0mm 12km Southwest  2.0m/s
17:00 Cloudy 86°F 87.8% 0mm 8km Southeast  2.5m/s
20:00 Cloudy 82°F 75.9% 0mm 12km Southeast  2.0m/s
23:00 Sunny 78°F 98% 0mm 4km Southeast  2.2m/s
02:00 Sunny 77°F 97.7% 0mm 4km Southeast  1.9m/s
05:00 Sunny 79°F 96.3% 0mm 8km Southeast  1.6m/s
08:00 Sunny 82°F 92.9% 0mm 0.2km Southwest  2.0m/s
11:00 Sunny 92°F 81.6% 0mm 12km Southwest  3.1m/s
14:00 Sunny 95°F 79.8% 0mm 12km Southwest  3.5m/s
17:00 Sunny 92°F 80.3% 0mm 12km Southwest  2.1m/s
20:00 Sunny 85°F 72.6% 0mm 12km Southeast  2.3m/s
23:00 Sunny 80°F 90.3% 0mm 4km Southwest  1.6m/s
02:00 Sunny 80°F 87.6% 0mm 4km Southwest  2.1m/s
05:00 Sunny 79°F 87.3% 0mm 4km Southwest  1.9m/s
08:00 Sunny 79°F 87.1% 0mm 8km Southwest  1.6m/s
11:00 Sunny 95°F 67.3% 0mm 12km Southwest  2.9m/s
14:00 Sunny 91°F 66.4% 0mm 12km Southwest  3.2m/s
17:00 Sunny 89°F 65.6% 0mm 12km Southwest  2.0m/s
20:00 Sunny 87°F 59.3% 0mm 4km Southeast  1.7m/s
23:00 Cloudy 84°F 81% 0mm 8km Southeast  2.1m/s
02:00 Cloudy 79°F 95.4% 0mm 4km Southwest  2.1m/s
05:00 Cloudy 80°F 84.2% 0mm 4km Southeast  1.2m/s
08:00 Cloudy 80°F 78.5% 0mm 8km Southwest  3.0m/s
11:00 Cloudy 95°F 72.8% 0mm 12km Southwest  2.1m/s
14:00 Cloudy 91°F 71.8% 0mm 8km Southwest  3.2m/s
17:00 Cloudy 90°F 69.9% 0mm 8km Southwest  3.1m/s
20:00 Cloudy 88°F 61.8% 0mm 12km Southeast  2.3m/s
23:00 Cloudy 77°F 76.4% 0mm 4km Southeast  2.3m/s
02:00 Cloudy 74°F 97.3% 0mm 4km Southeast  2.0m/s
05:00 Cloudy 74°F 81.1% 0mm 8km Southeast  1.7m/s